Regional Weather Roundup
Issued by NWS

Home | Current Version | Previous Version | Text Only | Print | Product List | Glossary On
Versions: 1 2 3 4 5 6 7 8 9 10 11 12 13 14 15 16 17 18 19 20 21 22 23 24 25 26 27 28 29 30 31 32 33 34 35 36 37 38 39 40 41 42 43 44 45 46 47 48 49 50
781
ASUS43 KTOP 070408
RWRKS

WEATHER ROUNDUP FOR KANSAS
NATIONAL WEATHER SERVICE GOODLAND KS
1000 PM CST SAT FEB 06 2016

NOTE:  "FAIR" INDICATES FEW OR NO CLOUDS BELOW 12,000 FEET WITH NO
SIGNIFICANT WEATHER AND/OR OBSTRUCTIONS TO VISIBILITY.

KSZ001>006-013>018-027>032-041>047-070500-
NORTHWEST KANSAS

CITY           SKY/WX    TMP DP  RH WIND       PRES   REMARKS
GOODLAND       CLOUDY    34  22  61 SW16      30.04F WCI  24
HAYS           CLOUDY    36  19  51 SW15      30.05S WCI  26
HILL CITY      CLOUDY    38  26  62 W8        30.04S
RUSSELL        CLEAR     39  25  57 SW16      30.04S WCI  30
$$

KSZ061>065-074>080-084>089-070500-
SOUTHWEST KANSAS

CITY           SKY/WX    TMP DP  RH WIND       PRES   REMARKS
DODGE CITY     CLEAR     38  15  39 SW14      30.10F WCI  30
ELKHART          N/A     40  10  29 SW12        N/A  WCI  33
GARDEN CITY    CLEAR     34  19  54 SW8       30.08F
GREAT BEND     CLEAR     36  18  48 SW10      30.08F WCI  28
LIBERAL        CLEAR     36  12  38 SW13      30.12S WCI  27
PRATT          PTCLDY    35  17  47 S13       30.11F WCI  26
$$

KSZ066>073-081>083-090>101-070500-
SOUTHEAST KANSAS

CITY           SKY/WX    TMP DP  RH WIND       PRES   REMARKS
CHANUTE        CLOUDY    35  27  72 S9        30.18F
COFFEYVILLE    CLOUDY    38  27  64 S6        30.21F
HUTCHINSON     PTCLDY    38  23  55 S9        30.13S
MEDICINE LODGE   N/A     36  21  54 S9        30.13F
NEWTON         CLOUDY    37  25  60 S15       30.13F WCI  28
PARSONS        CLOUDY    38  28  67 SW6       30.21F
WICHITA INTL     N/A     39  26  59 S13       30.13F WCI  31
WICHITA JABRA  CLOUDY    39  25  57 S17       30.13F WCI  30
WICHITA MCCONL CLOUDY    37  26  64 S13       30.14F WCI  29
WINFIELD       PTCLDY    38  27  64 S8        30.19F
$$

KSZ007>012-019>026-033>040-048>060-102>105-070500-
NORTHEAST KANSAS

CITY           SKY/WX    TMP DP  RH WIND       PRES   REMARKS
CONCORDIA      CLEAR     40  24  53 SW17      30.01F WCI  31
EMPORIA        CLEAR     36  26  67 S15       30.11F WCI  27
LAWRENCE       CLOUDY    40  27  59 S8        30.10F
MANHATTAN      PTCLDY    41  28  60 SW14      30.06F
MARYSVILLE     PTCLDY    36  28  75 S9        30.01F
OLATHE IND     CLOUDY    38  27  64 S14       30.11F WCI  30
OLATHE EXE     PTCLDY    39  26  59 S10       30.11F WCI  32
SALINA         PTCLDY    42  24  49 S17       30.07S
TOPEKA BILLARD CLOUDY    41  26  55 S9        30.08F
TOPEKA FORBES  CLOUDY    40  27  59 S16       30.08F WCI  31
$$




USA.gov is the U.S. government's official web portal to all federal, state and local government web resources and services.